LVJKD SAVC-SADF

Flight info

Callsign LVJKD
Flight time N/A
Altitude 25000
Route GATUD2G GATUD UP664 TRE UT693 ILPOT/N0304F270 BCA UW22 VALOS DCT TRINI
Aircraft B350/L-SBGRW/S

Departure

Time N/A
Airport General Enrique Mosconi International Airport (SAVC)

Arrival

Time 2026-04-29 20:14
Airport San Fernando Airport (SADF)
Time Latitude Longitude Altitude Speed Heading
2026-04-29 18:15 -43.21597 -65.25756 34708 ft 305 kts 33°
2026-04-29 18:15 -43.18855 -65.23689 34753 ft 304 kts 32°
2026-04-29 18:16 -43.15111 -65.20923 34742 ft 306 kts 32°
2026-04-29 18:16 -43.11371 -65.18160 34741 ft 307 kts 32°
2026-04-29 18:17 -43.07616 -65.15391 34740 ft 308 kts 32°
2026-04-29 18:17 -43.03835 -65.12607 34742 ft 309 kts 32°
2026-04-29 18:18 -43.00063 -65.09834 34742 ft 310 kts 32°
2026-04-29 18:18 -42.96268 -65.07047 34744 ft 312 kts 33°
2026-04-29 18:19 -42.92430 -65.04232 34744 ft 313 kts 33°
2026-04-29 18:19 -42.88591 -65.01421 34735 ft 315 kts 34°
2026-04-29 18:20 -42.84744 -64.98606 34732 ft 315 kts 34°
2026-04-29 18:20 -42.80897 -64.95795 34732 ft 315 kts 34°
2026-04-29 18:21 -42.77023 -64.92971 34732 ft 315 kts 34°
2026-04-29 18:21 -42.73180 -64.90172 34733 ft 315 kts 34°
2026-04-29 18:22 -42.69324 -64.87368 34733 ft 315 kts 34°
2026-04-29 18:22 -42.65455 -64.84558 34734 ft 316 kts 34°
2026-04-29 18:23 -42.61583 -64.81750 34735 ft 316 kts 34°
2026-04-29 18:23 -42.57701 -64.78939 34734 ft 316 kts 34°
2026-04-29 18:24 -42.53824 -64.76135 34732 ft 317 kts 34°
2026-04-29 18:24 -42.49946 -64.73335 34733 ft 317 kts 34°
2026-04-29 18:25 -42.46054 -64.70528 34734 ft 318 kts 34°
2026-04-29 18:25 -42.42162 -64.67726 34735 ft 318 kts 34°
2026-04-29 18:26 -42.38255 -64.64919 34735 ft 319 kts 34°
2026-04-29 18:26 -42.34304 -64.62184 34735 ft 320 kts 33°
2026-04-29 18:27 -42.30338 -64.59451 34736 ft 321 kts 33°
2026-04-29 18:27 -42.26358 -64.56715 34736 ft 322 kts 33°
2026-04-29 18:28 -42.22393 -64.53990 34735 ft 322 kts 33°
2026-04-29 18:28 -42.18396 -64.51250 34737 ft 323 kts 33°
2026-04-29 18:29 -42.14402 -64.48515 34738 ft 324 kts 33°
2026-04-29 18:29 -42.10393 -64.45773 34738 ft 325 kts 33°
2026-04-29 18:30 -42.06359 -64.43018 34738 ft 325 kts 33°
2026-04-29 18:30 -42.02331 -64.40271 34739 ft 326 kts 33°
2026-04-29 18:31 -41.98278 -64.37511 34739 ft 327 kts 33°
2026-04-29 18:31 -41.94223 -64.34753 34739 ft 328 kts 32°
2026-04-29 18:32 -41.90142 -64.31982 34742 ft 329 kts 32°
2026-04-29 18:32 -41.84021 -64.27834 34734 ft 329 kts 32°
2026-04-29 18:33 -41.79933 -64.25069 34742 ft 329 kts 32°
2026-04-29 18:33 -41.75859 -64.22316 34750 ft 329 kts 32°
2026-04-29 18:34 -41.73146 -64.20486 34757 ft 329 kts 32°
2026-04-29 18:34 -41.67711 -64.16823 34765 ft 329 kts 32°
2026-04-29 18:35 -41.63646 -64.14088 34771 ft 329 kts 32°
2026-04-29 18:35 -41.59572 -64.11352 34778 ft 329 kts 32°
2026-04-29 18:36 -41.55486 -64.08611 34785 ft 329 kts 32°
2026-04-29 18:36 -41.51399 -64.05873 34788 ft 329 kts 32°
2026-04-29 18:37 -41.47301 -64.03132 34789 ft 330 kts 32°
2026-04-29 18:37 -41.43222 -64.00407 34789 ft 330 kts 32°
2026-04-29 18:38 -41.39119 -63.97671 34789 ft 331 kts 32°
2026-04-29 18:38 -41.34983 -63.94916 34790 ft 331 kts 32°
2026-04-29 18:39 -41.30880 -63.92187 34791 ft 332 kts 32°
2026-04-29 18:39 -41.26742 -63.89439 34792 ft 332 kts 32°
2026-04-29 18:40 -41.22611 -63.86699 34791 ft 333 kts 32°
2026-04-29 18:40 -41.18458 -63.83949 34793 ft 334 kts 32°
2026-04-29 18:41 -41.10181 -63.78479 34796 ft 335 kts 32°
2026-04-29 18:42 -41.06000 -63.75722 34796 ft 335 kts 32°
2026-04-29 18:42 -41.01852 -63.72989 34795 ft 335 kts 32°
2026-04-29 18:43 -40.97699 -63.70259 34795 ft 334 kts 32°
2026-04-29 18:43 -40.93533 -63.67524 34790 ft 334 kts 31°
2026-04-29 18:44 -40.89440 -63.64721 34791 ft 332 kts 34°
2026-04-29 18:44 -40.85405 -63.61807 34783 ft 331 kts 34°
2026-04-29 18:45 -40.81385 -63.58906 34783 ft 329 kts 34°
2026-04-29 18:45 -40.77367 -63.56011 34783 ft 328 kts 34°
2026-04-29 18:46 -40.73363 -63.53129 34784 ft 327 kts 34°
2026-04-29 18:46 -40.69375 -63.50264 34784 ft 327 kts 34°
2026-04-29 18:47 -40.65404 -63.47413 34785 ft 326 kts 34°
2026-04-29 18:47 -40.61427 -63.44563 34785 ft 326 kts 34°
2026-04-29 18:48 -40.57467 -63.41729 34785 ft 325 kts 34°
2026-04-29 18:48 -40.53504 -63.38897 34785 ft 325 kts 34°
2026-04-29 18:49 -40.49529 -63.36059 34786 ft 325 kts 34°
2026-04-29 18:49 -40.45577 -63.33242 34790 ft 324 kts 33°
2026-04-29 18:50 -40.41607 -63.30416 34790 ft 325 kts 33°
2026-04-29 18:50 -40.37655 -63.27607 34790 ft 325 kts 33°
2026-04-29 18:51 -40.33675 -63.24781 34790 ft 325 kts 33°
2026-04-29 18:51 -40.29706 -63.21968 34791 ft 325 kts 33°
2026-04-29 18:52 -40.25724 -63.19149 34791 ft 326 kts 33°
2026-04-29 18:52 -40.21731 -63.16325 34791 ft 326 kts 33°
2026-04-29 18:53 -40.17754 -63.13517 34790 ft 325 kts 33°
2026-04-29 18:53 -40.13787 -63.10719 34790 ft 324 kts 33°
2026-04-29 18:54 -40.09832 -63.07933 34790 ft 324 kts 33°
2026-04-29 18:54 -40.05875 -63.05150 34791 ft 323 kts 32°
2026-04-29 18:55 -40.01933 -63.02381 34742 ft 325 kts 32°
2026-04-29 18:55 -39.99926 -63.00973 34604 ft 329 kts 32°
2026-04-29 18:55 -39.97910 -62.99559 34478 ft 333 kts 32°
2026-04-29 18:56 -39.95850 -62.98116 34288 ft 338 kts 32°
2026-04-29 18:56 -39.93753 -62.96646 34064 ft 344 kts 31°
2026-04-29 18:56 -39.91624 -62.95157 33841 ft 349 kts 31°
2026-04-29 18:56 -39.89520 -62.93686 33620 ft 354 kts 31°
2026-04-29 18:57 -39.87324 -62.92151 33381 ft 358 kts 31°
2026-04-29 18:57 -39.85137 -62.90625 33144 ft 361 kts 30°
2026-04-29 18:57 -39.82935 -62.89088 32906 ft 364 kts 30°
2026-04-29 18:57 -39.80684 -62.87520 32747 ft 363 kts 30°
2026-04-29 18:58 -39.76317 -62.84480 32753 ft 353 kts 30°
2026-04-29 18:58 -39.72082 -62.81384 32779 ft 344 kts 28°
2026-04-29 18:59 -39.67869 -62.78589 32785 ft 338 kts 30°
2026-04-29 18:59 -39.63750 -62.75751 32804 ft 333 kts 30°
2026-04-29 19:00 -39.59710 -62.72955 32822 ft 329 kts 30°
2026-04-29 19:00 -39.55658 -62.70153 32834 ft 327 kts 30°
2026-04-29 19:01 -39.51666 -62.67396 32841 ft 325 kts 30°
2026-04-29 19:01 -39.47630 -62.64716 32843 ft 324 kts 29°
2026-04-29 19:02 -39.44292 -62.62531 32799 ft 326 kts 29°
2026-04-29 19:02 -39.39573 -62.59450 32735 ft 326 kts 29°
2026-04-29 19:03 -39.35533 -62.56816 32735 ft 325 kts 29°
2026-04-29 19:03 -39.31501 -62.54190 32736 ft 324 kts 29°
2026-04-29 19:04 -39.27492 -62.51583 32736 ft 323 kts 29°
2026-04-29 19:04 -39.24125 -62.49397 32736 ft 323 kts 29°
2026-04-29 19:05 -39.20121 -62.46799 32737 ft 322 kts 29°
2026-04-29 19:05 -39.16141 -62.44220 32737 ft 322 kts 29°
2026-04-29 19:06 -39.12149 -62.41636 32737 ft 321 kts 29°
2026-04-29 19:07 -39.06158 -62.37765 32738 ft 321 kts 29°
2026-04-29 19:07 -39.02167 -62.35188 32735 ft 321 kts 28°
2026-04-29 19:08 -38.98167 -62.32608 32738 ft 321 kts 26°
2026-04-29 19:08 -38.94187 -62.30047 32740 ft 321 kts 25°
2026-04-29 19:09 -38.90258 -62.27523 32742 ft 320 kts 24°
2026-04-29 19:09 -38.86274 -62.24969 32736 ft 319 kts 23°
2026-04-29 19:10 -38.82320 -62.22435 32734 ft 318 kts 23°
2026-04-29 19:10 -38.78392 -62.19921 32734 ft 316 kts 23°
2026-04-29 19:11 -38.74472 -62.17415 32734 ft 315 kts 23°
2026-04-29 19:11 -38.70684 -62.14584 32742 ft 315 kts 31°
2026-04-29 19:12 -38.67111 -62.11379 32734 ft 316 kts 32°
2026-04-29 19:12 -38.63542 -62.08144 32735 ft 315 kts 32°
2026-04-29 19:13 -38.59962 -62.04897 32735 ft 315 kts 32°
2026-04-29 19:13 -38.56400 -62.01670 32736 ft 314 kts 32°
2026-04-29 19:14 -38.52840 -61.98448 32736 ft 314 kts 32°
2026-04-29 19:14 -38.49289 -61.95238 32736 ft 314 kts 32°
2026-04-29 19:15 -38.45728 -61.92023 32736 ft 313 kts 32°
2026-04-29 19:15 -38.42184 -61.88828 32736 ft 313 kts 32°
2026-04-29 19:16 -38.38612 -61.85611 32736 ft 313 kts 32°
2026-04-29 19:16 -38.35062 -61.82418 32737 ft 313 kts 32°
2026-04-29 19:17 -38.31514 -61.79230 32737 ft 313 kts 32°
2026-04-29 19:17 -38.27969 -61.76049 32737 ft 313 kts 32°
2026-04-29 19:18 -38.24409 -61.72859 32737 ft 313 kts 32°
2026-04-29 19:18 -38.20857 -61.69680 32737 ft 313 kts 32°
2026-04-29 19:19 -38.17291 -61.66491 32737 ft 313 kts 32°
2026-04-29 19:19 -38.13734 -61.63316 32737 ft 313 kts 32°
2026-04-29 19:20 -38.10165 -61.60133 32737 ft 313 kts 32°
2026-04-29 19:20 -38.06612 -61.56967 32857 ft 309 kts 32°
2026-04-29 19:21 -38.03086 -61.53831 32849 ft 310 kts 32°
2026-04-29 19:21 -37.99549 -61.50689 32847 ft 311 kts 32°
2026-04-29 19:22 -37.96015 -61.47552 32846 ft 311 kts 32°
2026-04-29 19:22 -37.92467 -61.44409 32846 ft 312 kts 32°
2026-04-29 19:23 -37.88917 -61.41267 32847 ft 312 kts 32°
2026-04-29 19:23 -37.85356 -61.38120 32847 ft 313 kts 32°
2026-04-29 19:24 -37.81807 -61.34987 32847 ft 313 kts 32°
2026-04-29 19:24 -37.78820 -61.32352 32843 ft 313 kts 32°
2026-04-29 19:25 -37.74667 -61.28695 32843 ft 313 kts 32°
2026-04-29 19:25 -37.71100 -61.25558 32843 ft 313 kts 32°
2026-04-29 19:26 -37.67545 -61.22434 32843 ft 313 kts 32°
2026-04-29 19:26 -37.63975 -61.19301 32843 ft 313 kts 32°
2026-04-29 19:27 -37.60418 -61.16183 32843 ft 313 kts 31°
2026-04-29 19:27 -37.56854 -61.13062 32842 ft 313 kts 31°
2026-04-29 19:28 -37.53273 -61.09930 32840 ft 313 kts 31°
2026-04-29 19:28 -37.49685 -61.06797 32836 ft 314 kts 30°
2026-04-29 19:29 -37.46090 -61.03661 32830 ft 314 kts 30°
2026-04-29 19:29 -37.42507 -61.00539 32823 ft 315 kts 30°
2026-04-29 19:30 -37.38906 -60.97405 32820 ft 316 kts 30°
2026-04-29 19:30 -37.35266 -60.94243 32818 ft 316 kts 30°
2026-04-29 19:31 -37.31668 -60.91119 32818 ft 316 kts 30°
2026-04-29 19:31 -37.28033 -60.87967 32818 ft 317 kts 30°
2026-04-29 19:32 -37.24408 -60.84827 32818 ft 317 kts 30°
2026-04-29 19:32 -37.20788 -60.81696 32818 ft 317 kts 30°
2026-04-29 19:33 -37.17178 -60.78577 32818 ft 318 kts 30°
2026-04-29 19:33 -37.13526 -60.75425 32819 ft 318 kts 30°
2026-04-29 19:34 -37.09883 -60.72284 32819 ft 318 kts 29°
2026-04-29 19:34 -37.06255 -60.69160 32819 ft 318 kts 29°
2026-04-29 19:35 -37.02590 -60.66008 32819 ft 319 kts 29°
2026-04-29 19:35 -36.98948 -60.62880 32819 ft 319 kts 28°
2026-04-29 19:36 -36.95312 -60.59761 32819 ft 319 kts 28°
2026-04-29 19:36 -36.91645 -60.56619 32819 ft 319 kts 28°
2026-04-29 19:37 -36.88008 -60.53507 32822 ft 319 kts 28°
2026-04-29 19:37 -36.84338 -60.50370 32822 ft 319 kts 28°
2026-04-29 19:38 -36.80663 -60.47232 32822 ft 319 kts 28°
2026-04-29 19:38 -36.77009 -60.44115 32822 ft 320 kts 28°
2026-04-29 19:39 -36.73338 -60.40988 32822 ft 320 kts 28°
2026-04-29 19:39 -36.69671 -60.37868 32822 ft 320 kts 28°
2026-04-29 19:40 -36.65973 -60.34724 32822 ft 320 kts 28°
2026-04-29 19:40 -36.62309 -60.31614 32815 ft 320 kts 28°
2026-04-29 19:41 -36.58639 -60.28503 32815 ft 319 kts 28°
2026-04-29 19:41 -36.54973 -60.25399 32815 ft 319 kts 28°
2026-04-29 19:42 -36.51295 -60.22290 32815 ft 318 kts 27°
2026-04-29 19:42 -36.47638 -60.19218 32815 ft 318 kts 27°
2026-04-29 19:43 -36.43964 -60.16135 32816 ft 318 kts 27°
2026-04-29 19:43 -36.40299 -60.13064 32816 ft 318 kts 27°
2026-04-29 19:44 -36.36634 -60.09996 32816 ft 318 kts 27°
2026-04-29 19:44 -36.32966 -60.06930 32816 ft 318 kts 27°
2026-04-29 19:45 -36.29295 -60.03864 32816 ft 318 kts 27°
2026-04-29 19:45 -36.25646 -60.00820 32816 ft 318 kts 27°
2026-04-29 19:46 -36.21987 -59.97771 32817 ft 318 kts 27°
2026-04-29 19:46 -36.18335 -59.94732 32817 ft 318 kts 27°
2026-04-29 19:47 -36.14667 -59.91683 32817 ft 318 kts 28°
2026-04-29 19:47 -36.10983 -59.88623 32817 ft 318 kts 28°
2026-04-29 19:48 -36.07315 -59.85582 32817 ft 318 kts 28°
2026-04-29 19:48 -36.03647 -59.82543 32817 ft 318 kts 28°
2026-04-29 19:48 -36.01800 -59.81016 32550 ft 327 kts 28°
2026-04-29 19:49 -35.99877 -59.79426 32192 ft 334 kts 28°
2026-04-29 19:49 -35.97937 -59.77821 31842 ft 339 kts 28°
2026-04-29 19:49 -35.95998 -59.76219 31484 ft 341 kts 28°
2026-04-29 19:49 -35.94007 -59.74575 31109 ft 342 kts 28°
2026-04-29 19:50 -35.92046 -59.72955 30740 ft 341 kts 29°
2026-04-29 19:50 -35.90064 -59.71320 30360 ft 339 kts 29°
2026-04-29 19:50 -35.88575 -59.70093 30076 ft 337 kts 29°
2026-04-29 19:50 -35.87239 -59.68992 29820 ft 336 kts 29°
2026-04-29 19:51 -35.85304 -59.67405 29447 ft 333 kts 27°
2026-04-29 19:51 -35.83328 -59.65971 29078 ft 330 kts 25°
2026-04-29 19:51 -35.81352 -59.64576 28707 ft 328 kts 25°
2026-04-29 19:51 -35.79383 -59.63199 28336 ft 326 kts 25°
2026-04-29 19:52 -35.77402 -59.61818 27960 ft 324 kts 25°
2026-04-29 19:52 -35.75452 -59.60461 27589 ft 322 kts 25°
2026-04-29 19:52 -35.73520 -59.59119 27174 ft 322 kts 25°
2026-04-29 19:52 -35.71556 -59.57755 26726 ft 322 kts 25°
2026-04-29 19:53 -35.69611 -59.56406 26285 ft 321 kts 25°
2026-04-29 19:53 -35.67664 -59.55056 25841 ft 321 kts 25°
2026-04-29 19:53 -35.65722 -59.53709 25398 ft 320 kts 26°
2026-04-29 19:53 -35.63760 -59.52351 24950 ft 320 kts 26°
2026-04-29 19:54 -35.59907 -59.49684 24064 ft 318 kts 26°
2026-04-29 19:54 -35.57983 -59.48354 23620 ft 317 kts 26°
2026-04-29 19:54 -35.56082 -59.47040 23180 ft 316 kts 26°
2026-04-29 19:55 -35.54156 -59.45709 22732 ft 315 kts 26°
2026-04-29 19:55 -35.52263 -59.44402 22290 ft 314 kts 26°
2026-04-29 19:55 -35.50377 -59.43101 21848 ft 312 kts 26°
2026-04-29 19:55 -35.48475 -59.41789 21400 ft 311 kts 27°
2026-04-29 19:56 -35.46608 -59.40503 20959 ft 310 kts 27°
2026-04-29 19:56 -35.44745 -59.39219 20516 ft 309 kts 27°
2026-04-29 19:56 -35.42862 -59.37923 20066 ft 307 kts 27°
2026-04-29 19:56 -35.41016 -59.36652 19621 ft 306 kts 27°
2026-04-29 19:57 -35.39168 -59.35381 19088 ft 307 kts 27°
2026-04-29 19:57 -35.37916 -59.34521 18724 ft 307 kts 27°
2026-04-29 19:57 -35.35432 -59.32814 17991 ft 306 kts 27°
2026-04-29 19:57 -35.33570 -59.31535 17432 ft 303 kts 27°
2026-04-29 19:58 -35.31748 -59.30284 16881 ft 300 kts 27°
2026-04-29 19:58 -35.29944 -59.29047 16331 ft 298 kts 27°
2026-04-29 19:58 -35.28149 -59.27816 15773 ft 296 kts 27°
2026-04-29 19:58 -35.26358 -59.26589 15222 ft 293 kts 28°
2026-04-29 19:59 -35.24583 -59.25373 14671 ft 291 kts 28°
2026-04-29 19:59 -35.22829 -59.24173 14123 ft 289 kts 28°
2026-04-29 19:59 -35.21080 -59.22975 13573 ft 287 kts 28°
2026-04-29 19:59 -35.19328 -59.21777 13018 ft 285 kts 28°
2026-04-29 20:00 -35.17599 -59.20596 12467 ft 283 kts 28°
2026-04-29 20:00 -35.15888 -59.19426 11918 ft 282 kts 28°
2026-04-29 20:00 -35.14203 -59.18275 11373 ft 280 kts 28°
2026-04-29 20:00 -35.12510 -59.17119 10823 ft 278 kts 28°
2026-04-29 20:01 -35.10815 -59.15962 10269 ft 277 kts 28°
2026-04-29 20:01 -35.09149 -59.14826 9740 ft 275 kts 28°
2026-04-29 20:01 -35.07508 -59.13708 9268 ft 272 kts 28°
2026-04-29 20:01 -35.05866 -59.12589 8805 ft 268 kts 28°
2026-04-29 20:02 -35.04256 -59.11493 8432 ft 263 kts 28°
2026-04-29 20:02 -35.02661 -59.10407 8086 ft 263 kts 28°
2026-04-29 20:02 -35.01047 -59.09309 7736 ft 263 kts 28°
2026-04-29 20:02 -35.00511 -59.08944 7620 ft 263 kts 28°
2026-04-29 20:03 -34.97865 -59.07145 7045 ft 262 kts 27°
2026-04-29 20:03 -34.96270 -59.06062 6693 ft 261 kts 27°
2026-04-29 20:03 -34.94679 -59.04981 6342 ft 260 kts 27°
2026-04-29 20:03 -34.93113 -59.03918 5994 ft 259 kts 27°
2026-04-29 20:04 -34.91528 -59.02843 5641 ft 258 kts 27°
2026-04-29 20:04 -34.89964 -59.01782 5292 ft 257 kts 27°
2026-04-29 20:04 -34.88393 -59.00717 4941 ft 257 kts 27°
2026-04-29 20:04 -34.86847 -58.99670 4594 ft 256 kts 27°
2026-04-29 20:05 -34.85285 -58.98612 4244 ft 256 kts 27°
2026-04-29 20:05 -34.83739 -58.97566 3897 ft 256 kts 27°
2026-04-29 20:05 -34.82187 -58.96516 3549 ft 256 kts 27°
2026-04-29 20:05 -34.80628 -58.95464 3327 ft 253 kts 27°
2026-04-29 20:06 -34.79102 -58.94432 3178 ft 252 kts 27°
2026-04-29 20:06 -34.77578 -58.93402 3051 ft 251 kts 27°
2026-04-29 20:06 -34.76041 -58.92363 3051 ft 244 kts 27°
2026-04-29 20:06 -34.74577 -58.91375 3043 ft 240 kts 27°
2026-04-29 20:07 -34.73124 -58.90395 3045 ft 236 kts 27°
2026-04-29 20:07 -34.71701 -58.89435 3046 ft 233 kts 27°
2026-04-29 20:07 -34.70286 -58.88481 3047 ft 230 kts 27°
2026-04-29 20:07 -34.68887 -58.87537 3048 ft 228 kts 27°
2026-04-29 20:08 -34.67498 -58.86602 3049 ft 227 kts 27°
2026-04-29 20:08 -34.67037 -58.86291 3049 ft 226 kts 27°
2026-04-29 20:08 -34.64759 -58.84757 3051 ft 224 kts 27°
2026-04-29 20:08 -34.63397 -58.83840 3050 ft 224 kts 27°
2026-04-29 20:09 -34.62034 -58.82923 3051 ft 223 kts 27°
2026-04-29 20:09 -34.60660 -58.81999 3051 ft 223 kts 27°
2026-04-29 20:09 -34.59304 -58.81088 3051 ft 223 kts 27°
2026-04-29 20:09 -34.57949 -58.80176 3052 ft 223 kts 27°
2026-04-29 20:10 -34.56722 -58.79014 2960 ft 229 kts 53°
2026-04-29 20:10 -34.56159 -58.77185 2634 ft 243 kts 85°
2026-04-29 20:10 -34.56041 -58.75177 2547 ft 232 kts 86°
2026-04-29 20:10 -34.55927 -58.73257 2528 ft 219 kts 86°
2026-04-29 20:11 -34.55791 -58.71471 2519 ft 207 kts 76°
2026-04-29 20:11 -34.55065 -58.70074 2527 ft 191 kts 36°
2026-04-29 20:11 -34.54054 -58.69087 2545 ft 181 kts 39°
2026-04-29 20:11 -34.53128 -58.68061 2389 ft 183 kts 41°
2026-04-29 20:12 -34.52210 -58.67002 2036 ft 178 kts 42°
2026-04-29 20:12 -34.51346 -58.65995 1789 ft 167 kts 41°
2026-04-29 20:12 -34.50526 -58.65037 1411 ft 160 kts 42°
2026-04-29 20:12 -34.49759 -58.64109 1002 ft 157 kts 42°
2026-04-29 20:13 -34.49042 -58.63221 964 ft 147 kts 43°
2026-04-29 20:13 -34.48542 -58.62635 763 ft 150 kts 41°
2026-04-29 20:13 -34.47540 -58.61488 461 ft 147 kts 41°
2026-04-29 20:13 -34.46816 -58.60654 296 ft 140 kts 41°
2026-04-29 20:14 -34.46125 -58.59864 97 ft 135 kts 40°
2026-04-29 20:14 -34.45490 -58.59129 13 ft 109 kts 42°
2026-04-29 20:14 -34.45093 -58.58665 12 ft 48 kts 44°
2026-04-29 20:14 -34.44908 -58.58449 12 ft 24 kts 48°
2026-04-29 20:15 -34.44857 -58.58327 12 ft 15 kts 124°
2026-04-29 20:15 -34.44950 -58.58244 12 ft 18 kts 149°
2026-04-29 20:15 -34.45054 -58.58170 12 ft 17 kts 149°
2026-04-29 20:15 -34.45166 -58.58088 12 ft 20 kts 150°
2026-04-29 20:16 -34.45285 -58.58003 12 ft 16 kts 150°
2026-04-29 20:16 -34.45345 -58.58012 12 ft 11 kts 245°
2026-04-29 20:16 -34.45386 -58.58108 12 ft 13 kts 243°
2026-04-29 20:16 -34.45433 -58.58216 12 ft 15 kts 243°
2026-04-29 20:17 -34.45476 -58.58317 12 ft 12 kts 243°
2026-04-29 20:17 -34.45515 -58.58342 12 ft 2 kts 161°
2026-04-29 20:17 -34.45537 -58.58335 12 ft 3 kts 45°
2026-04-29 20:17 -34.45521 -58.58340 12 ft 2 kts 332°